GW2344 Weather Reports


time (UTC)temp
C
wind
direction
speed
KPH
gust
KPH
rain 1hr
cm
rain 24hr
cm
rain mn
cm
humidity
%
barometer
mb
20260503030944 16 62 0.0 0.0 0.00 0.00 0.00 47 1013.6
20260503030441 17 31 1.6 1.6 0.00 0.00 0.00 44 1013.9
20260503025938 17 66 1.6 1.6 0.00 0.00 0.00 42 1013.6
20260503025434 18 70 0.0 1.6 0.00 0.00 0.00 40 1013.7
20260503024932 18 72 1.6 1.6 0.00 0.00 0.00 43 1013.6
20260503024428 18 68 1.6 3.2 0.00 0.00 0.00 39 1013.5
20260503023926 18 299 3.2 4.8 0.00 0.00 0.00 39 1013.6
20260503023423 18 99 4.8 4.8 0.00 0.00 0.00 40 1013.6
20260503022919 18 24 3.2 3.2 0.00 0.00 0.00 40 1013.6
20260503022414 18 71 3.2 3.2 0.00 0.00 0.00 41 1013.6
20260503021910 18 101 1.6 1.6 0.00 0.00 0.00 40 1013.7
20260503021407 18 64 0.0 1.6 0.00 0.00 0.00 38 1013.6
20260503020904 18 63 0.0 0.0 0.00 0.00 0.00 42 1013.5
20260503020402 19 49 0.0 1.6 0.00 0.00 0.00 41 1013.9
20260503015858 19 49 4.8 4.8 0.00 0.00 0.00 39 1013.6
20260503015355 19 61 4.8 4.8 0.00 0.00 0.00 38 1013.4
20260503014850 19 58 3.2 3.2 0.00 0.00 0.00 41 1013.6
20260503014348 20 40 1.6 3.2 0.00 0.00 0.00 39 1013.7
20260503013846 20 57 3.2 3.2 0.00 0.00 0.00 38 1013.4
20260503013343 20 47 1.6 3.2 0.00 0.00 0.00 39 1013.3
20260503012840 21 52 3.2 4.8 0.00 0.00 0.00 39 1013.6
20260503012338 21 28 4.8 4.8 0.00 0.00 0.00 35 1013.6
20260503011834 21 44 4.8 4.8 0.00 0.00 0.00 38 1013.4
20260503011331 21 57 4.8 4.8 0.00 0.00 0.00 35 1013.7
20260503010827 21 65 4.8 4.8 0.00 0.00 0.00 36 1013.6
20260503010325 21 38 1.6 3.2 0.00 0.00 0.00 35 1013.6
20260503005821 21 43 3.2 3.2 0.00 0.00 0.00 34 1013.6
20260503005319 22 44 4.8 4.8 0.00 0.00 0.00 32 1013.6
20260503004815 22 59 3.2 3.2 0.00 0.00 0.00 32 1013.6
20260503004313 22 55 4.8 4.8 0.00 0.00 0.00 34 1013.7
20260503003810 22 41 6.4 8.0 0.00 0.00 0.00 29 1013.5
20260503003307 23 86 4.8 9.7 0.00 0.00 0.00 31 1013.9
20260503002804 23 37 3.2 3.2 0.00 0.00 0.00 30 1013.4
20260503002301 22 59 0.0 0.0 0.00 0.00 0.00 31 1013.6
20260503001757 22 50 4.8 8.0 0.00 0.00 0.00 30 1013.7
20260503001254 23 40 3.2 3.2 0.00 0.00 0.00 32 1014.0
20260503000751 23 63 1.6 1.6 0.00 0.00 0.00 27 1013.7
20260503000248 22 58 1.6 3.2 0.00 0.00 0.00 28 1013.9
20260502235745 22 63 3.2 3.2 0.00 0.00 0.00 29 1013.7
20260502235243 23 39 4.8 4.8 0.00 0.00 0.00 28 1013.7
20260502234739 22 68 4.8 4.8 0.00 0.00 0.00 29 1013.7
20260502234236 22 24 8.0 11.3 0.00 0.00 0.00 29 1013.7
20260502233732 22 39 6.4 8.0 0.00 0.00 0.00 28 1013.9
20260502233229 23 45 4.8 4.8 0.00 0.00 0.00 26 1013.9
20260502232725 22 64 3.2 3.2 0.00 0.00 0.00 30 1014.1
20260502232222 22 37 6.4 9.7 0.00 0.00 0.00 28 1013.9
20260502231719 23 70 11.3 14.5 0.00 0.00 0.00 30 1014.0
20260502231217 23 23 9.7 11.3 0.00 0.00 0.00 28 1014.2
20260502230716 23 47 4.8 4.8 0.00 0.00 0.00 29 1014.0
20260502230213 22 51 8.0 11.3 0.00 0.00 0.00 30 1014.3
20260502225709 22 59 11.3 14.5 0.00 0.00 0.00 28 1014.3
20260502225206 22 54 8.0 9.7 0.00 0.00 0.00 30 1014.5
20260502224702 22 41 11.3 12.9 0.00 0.00 0.00 28 1014.6
20260502224159 22 10 12.9 16.1 0.00 0.00 0.00 29 1014.4
20260502223657 22 1 11.3 14.5 0.00 0.00 0.00 29 1014.5
20260502223155 22 35 8.0 9.7 0.00 0.00 0.00 31 1014.4
20260502222652 23 18 9.7 11.3 0.00 0.00 0.00 28 1014.6
20260502222148 22 63 9.7 11.3 0.00 0.00 0.00 28 1014.8
20260502221643 22 31 8.0 9.7 0.00 0.00 0.00 27 1014.7
20260502221136 22 53 6.4 8.0 0.00 0.00 0.00 27 1015.1
20260502220632 22 31 8.0 9.7 0.00 0.00 0.00 28 1014.9
20260502220128 22 55 12.9 16.1 0.00 0.00 0.00 30 1014.8
20260502215625 22 28 9.7 11.3 0.00 0.00 0.00 28 1015.1
20260502215122 23 54 12.9 14.5 0.00 0.00 0.00 29 1015.1
20260502214619 23 29 6.4 8.0 0.00 0.00 0.00 29 1015.3
20260502214116 23 71 4.8 4.8 0.00 0.00 0.00 31 1015.2
20260502213614 23 61 4.8 8.0 0.00 0.00 0.00 30 1015.2
20260502213111 23 44 6.4 8.0 0.00 0.00 0.00 27 1015.3
20260502212610 23 56 4.8 9.7 0.00 0.00 0.00 29 1015.3
20260502212108 23 156 4.8 8.0 0.00 0.00 0.00 26 1015.5
20260502211602 23 242 3.2 3.2 0.00 0.00 0.00 25 1015.4
20260502211100 23 60 1.6 1.6 0.00 0.00 0.00 29 1015.5
20260502210557 23 247 4.8 8.0 0.00 0.00 0.00 27 1015.4
20260502210054 23 182 3.2 3.2 0.00 0.00 0.00 26 1015.7
20260502205550 22 54 1.6 3.2 0.00 0.00 0.00 30 1015.7
20260502205048 23 63 1.6 1.6 0.00 0.00 0.00 28 1015.7
20260502204544 23 35 3.2 3.2 0.00 0.00 0.00 29 1015.7
20260502204042 23 62 1.6 1.6 0.00 0.00 0.00 28 1016.0
20260502203539 23 62 1.6 1.6 0.00 0.00 0.00 29 1016.0
20260502203036 22 61 0.0 0.0 0.00 0.00 0.00 27 1016.0
20260502202532 22 24 1.6 1.6 0.00 0.00 0.00 30 1016.2
20260502202031 22 51 1.6 1.6 0.00 0.00 0.00 27 1016.0
20260502201526 22 58 0.0 0.0 0.00 0.00 0.00 30 1016.3
20260502201022 22 49 3.2 3.2 0.00 0.00 0.00 32 1016.0
20260502200518 21 63 1.6 1.6 0.00 0.00 0.00 33 1016.4
20260502200017 20 54 3.2 3.2 0.00 0.00 0.00 34 1016.4
20260502195514 21 67 1.6 1.6 0.00 0.00 0.00 33 1016.5
20260502195010 21 51 1.6 3.2 0.00 0.00 0.00 33 1016.7
20260502194507 20 67 3.2 3.2 0.00 0.00 0.00 36 1016.5
20260502194002 20 74 1.6 1.6 0.00 0.00 0.00 34 1016.6
20260502193500 20 58 0.0 0.0 0.00 0.00 0.00 38 1016.7
20260502192955 20 70 1.6 3.2 0.00 0.00 0.00 36 1016.6
20260502192452 21 68 1.6 3.2 0.00 0.00 0.00 35 1017.3
20260502191949 20 56 1.6 1.6 0.00 0.00 0.00 36 1017.1
20260502191447 20 63 0.0 0.0 0.00 0.00 0.00 38 1017.0
20260502190945 19 105 1.6 1.6 0.00 0.00 0.00 38 1017.0
20260502190442 19 70 0.0 1.6 0.00 0.00 0.00 39 1017.3
20260502185938 19 61 3.2 3.2 0.00 0.00 0.00 38 1017.3
20260502185434 18 66 1.6 1.6 0.00 0.00 0.00 43 1017.3
20260502184931 18 46 0.0 0.0 0.00 0.00 0.00 45 1017.6
20260502184426 17 95 3.2 3.2 0.00 0.00 0.00 43 1017.5
20260502183923 18 110 3.2 4.8 0.00 0.00 0.00 42 1017.7
20260502183419 17 102 1.6 3.2 0.00 0.00 0.00 45 1017.6
20260502182914 17 95 1.6 3.2 0.00 0.00 0.00 42 1018.0
20260502182410 17 54 1.6 1.6 0.00 0.00 0.00 44 1017.8
20260502181906 17 290 3.2 3.2 0.00 0.00 0.00 44 1018.1
20260502181405 16 23 3.2 3.2 0.00 0.00 0.00 47 1018.1
20260502180903 16 104 4.8 8.0 0.00 0.00 0.00 47 1018.2
20260502180400 16 100 3.2 3.2 0.00 0.00 0.00 43 1018.0
20260502170319 13 84 1.6 3.2 0.00 0.00 0.00 53 1018.5
20260502164306 12 127 3.2 3.2 0.00 0.00 0.00 54 1018.7
20260502163802 12 65 0.0 0.0 0.00 0.00 0.00 56 1018.9
20260502163258 12 5 4.8 4.8 0.00 0.00 0.00 55 1018.9
20260502162756 12 46 3.2 4.8 0.00 0.00 0.00 55 1019.0
20260502162253 12 61 0.0 0.0 0.00 0.00 0.00 53 1019.0
20260502161749 12 60 0.0 0.0 0.00 0.00 0.00 55 1019.1
20260502161240 12 64 1.6 1.6 0.00 0.00 0.00 53 1019.1
20260502160738 11 83 3.2 3.2 0.00 0.00 0.00 54 1019.0
20260502160237 12 73 1.6 1.6 0.00 0.00 0.00 54 1019.1
20260502152200 10 116 3.2 3.2 0.00 0.00 0.00 67 1019.2
20260502151658 9 47 0.0 1.6 0.00 0.00 0.00 69 1019.1
20260502151155 10 60 1.6 1.6 0.00 0.00 0.00 69 1019.5
20260502150652 8 62 0.0 0.0 0.00 0.00 0.00 71 1019.2
20260502150148 8 62 0.0 0.0 0.00 0.00 0.00 72 1019.6
20260502140112 5 60 0.0 0.0 0.00 0.00 0.00 83 1019.3
20260502130537 1 62 0.0 0.0 0.00 0.00 0.00 93 1019.2
20260502123520 0 63 0.0 0.0 0.00 0.00 0.00 93 1019.0
20260502123017 0 63 0.0 0.0 0.00 0.00 0.00 92 1019.2
20260502122513 1 64 0.0 0.0 0.00 0.00 0.00 93 1019.1
20260502122011 1 63 0.0 0.0 0.00 0.00 0.00 92 1019.0
20260502121508 0 63 0.0 0.0 0.00 0.00 0.00 91 1019.0
20260502121005 1 60 0.0 0.0 0.00 0.00 0.00 90 1019.0
20260502120502 1 63 0.0 0.0 0.00 0.00 0.00 92 1019.1
20260502115456 1 64 0.0 0.0 0.00 0.00 0.00 91 1018.9
20260502114952 1 63 0.0 0.0 0.00 0.00 0.00 90 1019.0
20260502114449 1 63 0.0 0.0 0.00 0.00 0.00 90 1019.1
20260502113946 1 62 0.0 0.0 0.00 0.00 0.00 90 1019.0
20260502113443 2 62 0.0 0.0 0.00 0.00 0.00 92 1018.9
20260502112942 2 65 0.0 0.0 0.00 0.00 0.00 93 1018.9
20260502112439 1 64 0.0 0.0 0.00 0.00 0.00 93 1018.9
20260502111937 1 64 0.0 0.0 0.00 0.00 0.00 93 1018.8
20260502111434 0 64 0.0 0.0 0.00 0.00 0.00 92 1018.9
20260502110931 0 62 0.0 0.0 0.00 0.00 0.00 90 1018.7
20260502110429 1 61 0.0 0.0 0.00 0.00 0.00 88 1018.8
20260502105926 2 62 0.0 0.0 0.00 0.00 0.00 90 1018.8
20260502105423 2 69 0.0 0.0 0.00 0.00 0.00 92 1018.9
20260502104921 1 63 0.0 0.0 0.00 0.00 0.00 90 1018.8
20260502104418 1 62 0.0 0.0 0.00 0.00 0.00 89 1018.7
20260502103915 1 62 0.0 0.0 0.00 0.00 0.00 89 1018.8
20260502103413 2 63 0.0 0.0 0.00 0.00 0.00 88 1018.6
20260502102909 2 62 0.0 0.0 0.00 0.00 0.00 89 1018.7
20260502102406 2 65 0.0 0.0 0.00 0.00 0.00 89 1018.6
20260502101904 2 62 0.0 0.0 0.00 0.00 0.00 88 1018.2
20260502101402 3 66 0.0 0.0 0.00 0.00 0.00 87 1018.6
20260502100900 3 62 0.0 0.0 0.00 0.00 0.00 89 1018.5
20260502100359 3 64 0.0 0.0 0.00 0.00 0.00 89 1018.5
20260502091332 3 62 0.0 0.0 0.00 0.00 0.00 85 1018.1
20260502090830 3 61 0.0 0.0 0.00 0.00 0.00 84 1018.2
20260502090327 3 62 0.0 0.0 0.00 0.00 0.00 85 1018.1
20260502071222 5 62 0.0 0.0 0.00 0.00 0.00 78 1017.8
20260502070720 6 62 0.0 0.0 0.00 0.00 0.00 77 1017.9
20260502070217 6 62 0.0 0.0 0.00 0.00 0.00 76 1017.9
20260502065716 6 62 0.0 0.0 0.00 0.00 0.00 77 1017.7
20260502065213 6 62 0.0 0.0 0.00 0.00 0.00 76 1017.5
20260502064712 6 61 0.0 0.0 0.00 0.00 0.00 76 1017.7
20260502064208 6 63 0.0 0.0 0.00 0.00 0.00 76 1017.8
20260502063706 6 63 0.0 0.0 0.00 0.00 0.00 77 1017.6
20260502063204 6 63 0.0 0.0 0.00 0.00 0.00 76 1017.6
20260502062701 6 63 0.0 0.0 0.00 0.00 0.00 75 1017.6
20260502062158 6 63 0.0 0.0 0.00 0.00 0.00 75 1017.6
20260502061657 7 64 0.0 0.0 0.00 0.00 0.00 74 1017.4
20260502061154 7 63 0.0 0.0 0.00 0.00 0.00 73 1017.3
20260502060649 7 64 0.0 0.0 0.00 0.00 0.00 73 1017.5
20260502060146 7 64 0.0 0.0 0.00 0.00 0.00 73 1017.1
20260502055643 7 63 0.0 0.0 0.00 0.00 0.00 74 1017.3
20260502055141 7 62 0.0 0.0 0.00 0.00 0.00 74 1017.4
20260502054640 7 62 0.0 0.0 0.00 0.00 0.00 74 1017.1
20260502054137 7 63 0.0 0.0 0.00 0.00 0.00 74 1017.1
20260502053634 7 64 0.0 0.0 0.00 0.00 0.00 74 1017.1
20260502053131 7 63 0.0 0.0 0.00 0.00 0.00 73 1017.1
20260502052629 7 62 0.0 0.0 0.00 0.00 0.00 72 1017.0
20260502052127 7 63 0.0 0.0 0.00 0.00 0.00 71 1017.1
20260502051625 8 63 0.0 0.0 0.00 0.00 0.00 69 1017.0
20260502051123 8 63 0.0 0.0 0.00 0.00 0.00 69 1016.9
20260502050619 8 64 0.0 0.0 0.00 0.00 0.00 69 1016.9
20260502050116 7 61 0.0 0.0 0.00 0.00 0.00 70 1016.8
20260502045612 8 60 1.6 1.6 0.00 0.00 0.00 70 1016.8
20260502045109 10 63 0.0 0.0 0.00 0.00 0.00 63 1016.6
20260502044606 10 61 0.0 0.0 0.00 0.00 0.00 66 1016.8
20260502044103 10 63 0.0 0.0 0.00 0.00 0.00 62 1016.7
20260502043601 10 62 0.0 0.0 0.00 0.00 0.00 62 1016.6
20260502043056 11 64 0.0 0.0 0.00 0.00 0.00 55 1016.7
20260502042551 11 64 0.0 0.0 0.00 0.00 0.00 57 1016.5
20260502042049 11 64 0.0 0.0 0.00 0.00 0.00 59 1016.7
20260502041547 11 64 0.0 0.0 0.00 0.00 0.00 59 1016.5
20260502041043 11 64 0.0 0.0 0.00 0.00 0.00 58 1016.7
20260502040540 11 64 0.0 0.0 0.00 0.00 0.00 56 1016.4
20260502040037 12 64 0.0 0.0 0.00 0.00 0.00 57 1016.5
20260502035533 12 63 0.0 0.0 0.00 0.00 0.00 59 1016.7
20260502035031 11 59 0.0 1.6 0.00 0.00 0.00 58 1016.4
20260502034528 11 62 0.0 0.0 0.00 0.00 0.00 58 1016.0
20260502034027 12 64 0.0 0.0 0.00 0.00 0.00 58 1016.3
20260502033525 12 64 0.0 0.0 0.00 0.00 0.00 57 1015.9
20260502033022 12 66 0.0 0.0 0.00 0.00 0.00 57 1015.9
20260502032517 12 63 0.0 0.0 0.00 0.00 0.00 57 1015.9
20260502032014 12 67 0.0 0.0 0.00 0.00 0.00 59 1016.0
20260502031512 12 70 1.6 1.6 0.00 0.00 0.00 56 1016.0